CST,Max TemperatureF,Mean TemperatureF,Min TemperatureF,Max Dew PointF,MeanDew PointF,Min DewpointF,Max Humidity, Mean Humidity, Min Humidity, Max Sea Level PressureIn, Mean Sea Level PressureIn, Min Sea Level PressureIn, Max VisibilityMiles, Mean VisibilityMiles, Min VisibilityMiles, Max Wind SpeedMPH, Mean Wind SpeedMPH, Max Gust SpeedMPH,PrecipitationIn, CloudCover, Events, WindDirDegrees
2012-11-1,83,70,57,72,63,54,100,90,37,30.08,30.02,29.95,10,4,0,8,0,,0.00,5,Fog-Rain,195
2012-11-2,82,71,60,68,64,59,100,82,47,30.04,30.00,29.90,10,8,1,12,3,,0.00,4,Rain,166
2012-11-3,83,72,63,68,65,60,100,81,46,30.06,30.01,29.94,10,10,10,13,3,,0.00,5,Rain,109
2012-11-4,81,70,60,65,62,59,100,82,50,30.11,30.06,30.00,10,7,0,26,6,29,0.83,4,Fog-Rain-Thunderstorm,310
2012-11-5,84,70,57,65,60,52,93,70,45,30.06,30.01,29.93,10,10,8,13,2,,0.00,1,,198
2012-11-6,75,64,53,51,45,38,85,54,30,30.19,30.11,30.06,10,10,10,9,3,,0.00,0,Rain,73
2012-11-7,80,64,49,56,51,46,89,64,37,30.19,30.10,30.04,10,10,3,8,1,,0.00,0,Rain,158
2012-11-8,82,67,52,63,56,51,95,74,36,30.12,30.05,29.98,10,8,4,15,4,22,0.00,0,Rain,150
2012-11-9,82,71,60,64,61,56,95,73,45,30.07,30.02,29.93,10,10,10,21,9,25,0.00,3,,156
2012-11-10,80,71,62,65,62,58,94,79,49,30.02,29.95,29.85,10,10,10,21,9,28,0.00,3,,148
2012-11-11,80,73,66,66,59,33,94,63,28,30.15,29.90,29.83,10,10,10,18,10,23,0.00,5,Rain,162
2012-11-12,66,57,48,36,28,17,58,35,16,30.46,30.34,30.16,10,10,3,17,13,29,0.00,5,,27
2012-11-13,53,50,48,37,29,23,62,43,33,30.47,30.37,30.32,10,10,10,14,8,21,0.00,7,Rain,58
2012-11-14,59,53,45,43,37,33,83,54,38,30.41,30.33,30.28,10,10,10,6,1,,0.00,7,,48
2012-11-15,59,50,42,48,41,36,93,63,41,30.30,30.25,30.21,10,10,10,6,1,,0.00,7,,66
2012-11-16,68,61,50,45,39,33,67,46,34,30.35,30.29,30.25,10,10,10,12,5,18,0.00,5,,50
2012-11-17,67,54,41,43,36,33,78,54,28,30.37,30.30,30.25,10,10,10,8,3,,0.00,1,Rain,63
2012-11-18,73,58,44,54,49,42,93,67,44,30.27,30.22,30.16,10,9,4,15,3,,0.00,3,Rain,141
2012-11-19,70,63,56,58,55,52,92,77,60,30.25,30.19,30.13,10,10,10,10,2,,0.00,7,Rain,133
2012-11-20,79,66,52,61,57,50,95,78,52,30.22,30.16,30.10,10,9,2,9,1,,0.00,1,,183
2012-11-21,76,64,53,60,54,51,94,74,45,30.26,30.19,30.14,10,10,10,12,2,,0.00,1,Rain,119
2012-11-22,77,64,50,59,54,48,100,79,49,30.15,30.10,30.03,10,7,1,16,3,26,0.00,2,Rain,170
2012-11-23,71,63,52,63,51,32,96,68,35,30.36,30.25,30.11,10,10,10,18,4,25,0.00,5,,5
2012-11-24,64,54,43,37,30,25,80,40,24,30.41,30.30,30.16,10,10,10,15,6,20,0.00,3,Rain,27
2012-11-25,73,56,40,58,52,36,94,74,51,30.14,30.01,29.93,10,10,10,13,4,17,0.00,4,,185
2012-11-26,75,66,57,68,61,51,100,94,63,30.12,29.97,29.92,10,4,0,17,1,,0.08,6,Fog-Rain,224
2012-11-27,63,56,45,49,43,36,83,68,45,30.38,30.24,30.12,10,10,7,17,12,26,0.05,3,Rain,21
2012-11-28,65,51,37,47,42,36,94,75,52,30.43,30.34,30.27,10,10,10,8,3,,0.00,0,Rain,115
2012-11-29,70,55,40,57,50,39,95,79,56,30.28,30.20,30.12,10,10,8,10,2,,0.00,5,Rain,136
2012-11-30,77,66,56,64,61,56,100,82,57,30.17,30.10,30.04,10,9,0,10,2,,0.00,6,Fog-Rain,196